Track LEMUR 2 YNDRD now! 10-day predictions LEMUR 2 YNDRD is classified as:
1 44413U 19038AD 22141.41188252 .00014389 00000-0 74351-3 0 9996 2 44413 97.6265 110.2072 0019814 222.8195 137.1495 15.16223647158919